Location: Bidart
(43.4376°N, 1.5913°W)
Time: 16:02:29
(UTC+00:00)

SL-16 R/B - Pass Details

Date: 19 May 2025
Orbit: 841 x 844 km, 71.0° (Epoch: 13 June)

Event Time Altitude Azimuth Distance (km) Brightness Sun altitude
Rises 22:41:39 0° 340° (NNW) 3,412 6.8 -23.9°
Reaches altitude 10° 22:44:16 10° 348° (NNW) 2,474 5.7 -24.1°
Maximum altitude 22:49:35 39° 57° (ENE) 1,239 3.1 -24.4°
Enters shadow 22:51:13 32° 94° (E) 1,402 3.1 -24.5°
